Regional Weather Roundup
Issued by NWS Upton, NY

Home | Current Version | Previous Version | Text Only | Print | Product List | Glossary On
Versions: 1 2 3 4 5 6 7 8 9 10 11 12 13 14 15 16 17 18 19 20 21 22 23 24 25 26 27 28
000
ASUS41 KOKX 311504
RWROKX

REGIONAL WEATHER ROUNDUP
NATIONAL WEATHER SERVICE NEW YORK NY
1100 AM EDT TUE MAY 31 2016

NOTE: "FAIR" INDICATES FEW OR NO CLOUDS BELOW 12,000 FEET WITH NO
SIGNIFICANT WEATHER AND/OR OBSTRUCTIONS TO VISIBILITY.

NYZ071-072-176-178-NJZ106-104-311600-
NEW YORK CITY METRO AREA


CITY           SKY/WX    TMP DP  RH WIND       PRES   REMARKS
CENTRAL PARK   MOSUNNY   78  61  55 VRB5      30.01R
LAGUARDIA APRT PTSUNNY   79  61  53 NE10G18   29.97S
KENNEDY INTL   PTSUNNY   73  68  84 S3        29.99R
NEWARK/LIBERTY PTSUNNY   80  62  54 VRB3      29.97R
BRNX BOT. GARD   N/A     79  63  57 S3        30.00S
TETERBORO      MOSUNNY   80  59  48 N6        29.96S
$$

NYZ177-179-078>081-311600-
LONG ISLAND NEW YORK

CITY           SKY/WX    TMP DP  RH WIND       PRES   REMARKS
FARMINGDALE    CLOUDY    74  67  78 CALM      29.98S
ISLIP          PTSUNNY   74  67  78 S7        29.98S
SHIRLEY        CLOUDY    72  68  87 S7        29.99S
RIVERHEAD        N/A     77  70  78 CALM      29.97S
WESTHAMPTON    CLOUDY    68  65  90 SW8       30.00S
EAST HAMPTON   CLOUDY    67  65  93 SW7       29.98S
MONTAUK POINT    N/A     70  67  90 SW5       29.99S
$$

NYZ052-065-067-311600-
HUDSON VALLEY

CITY           SKY/WX    TMP DP  RH WIND       PRES   REMARKS
WHITE PLAINS   MOSUNNY   78  54  43 NE3       29.98S
NEWBURGH       MOSUNNY   77  57  50 CALM      29.99S
MONTGOMERY     SUNNY     78  60  53 SE6       29.98S
POUGHKEEPSIE   SUNNY     79  55  43 CALM      29.96F
ALBANY         MOSUNNY   76  52  43 NW15      29.96F
$$

NJZ001-105-106-008-010-013-015-019>022-104-311600-
NEW JERSEY

CITY           SKY/WX    TMP DP  RH WIND       PRES   REMARKS
NEWARK/LIBERTY PTSUNNY   80  62  54 VRB3      29.97R
TETERBORO      MOSUNNY   80  59  48 N6        29.96S
CALDWELL       PTSUNNY   79  61  53 VRB5      29.98S
MORRISTOWN     MOSUNNY   79  57  47 N9        29.98S
SOMERVILLE     PTSUNNY   82  63  52 VRB6      29.96S
SUSSEX         SUNNY     78  55  44 N8        29.99F
ANDOVER          N/A     78  52  40 VRB7      30.00S
TRENTON        PTSUNNY   80  63  55 NE12      29.96S
MILLVILLE      CLOUDY    77  67  71 N6        29.97S
ATLANTIC CITY  PTSUNNY   75  68  78 CALM      29.97F
WRIGHTSTOWN    MOSUNNY   78  67  70 N6        29.95S
TOMS RIVER     PTSUNNY   79  64  61 N6        29.97S
BELMAR         CLOUDY    76  67  73 E3        29.99R
$$

PAZ047>061-062-071-311600-
EASTERN PENNSYLVANIA

CITY           SKY/WX    TMP DP  RH WIND       PRES   REMARKS
PHILADELPHIA   MOSUNNY   82  59  45 NE14      29.97S
ALLENTOWN      SUNNY     80  54  40 NE8       29.99S
SCRANTON       SUNNY     74  60  61 CALM      30.01F
$$

CTZ002-004>006-009-010-012-RIZ004-006-007-MAZ004-011-015-311600-
SOUTHERN NEW ENGLAND
 IN CT

CITY           SKY/WX    TMP DP  RH WIND       PRES   REMARKS
BRADLEY INTL   CLOUDY    78  54  43 VRB6      29.95S
HARTFORD       CLOUDY    80  54  40 N7        29.96S
DANBURY        CLOUDY    77  55  46 VRB6      29.99F
WTRBRY/OXFORD  PTSUNNY   73  52  46 N9        30.00S
BRIDGEPORT     CLOUDY    75  67  76 SW8       29.96F
MERIDEN        CLOUDY    79  53  40 NW8       29.96F
NEW HAVEN      CLOUDY    72  67  84 S8        29.96F
CHESTER          N/A     79  54  41 VRB7      29.98S
GROTON         FOG       67  66  97 S9        29.96S VSB 1
WILLIMANTIC    MOSUNNY   81  52  36 N12       29.96S

 IN RI

CITY           SKY/WX    TMP DP  RH WIND       PRES   REMARKS
PROVIDENCE     PTSUNNY   79  59  50 W7        29.95F
BLOCK ISLAND   CLOUDY    66  63  90 SW15      29.98F
WESTERLY       CLOUDY    69  63  81 S8        29.98S

 IN MA

CITY           SKY/WX    TMP DP  RH WIND       PRES   REMARKS
BOSTON         PTSUNNY   80  52  37 W12G20    29.91F
WORCESTER      CLOUDY    75  47  36 W13       29.96F
WESTFIELD      CLOUDY    79  53  40 NW7       29.95S
PROVINCETOWN   CLOUDY    66  63  90 SW16      29.94S FOG
NANTUCKET      CLOUDY    64  61  90 SW13      29.98S
$$

ANZ330-335-338-340-345-350-353-355-311600-
COASTAL MARINE OBSERVATIONS


STATION/POSITION TIME  SKY/WX   TEMP    WIND        PRES    VSBY  WAVE
                                AIR SEA DIR/SP/G                  HT/PER
                 (UTC)          (F)     (DEG/KT/KT) (MB)    (MI)  (FT/S)
NY HARB ENTRANCE 1450            61 59  180/  4/  4 1014.9          3/ 7
20S FIRE ISLAND  1350            62 61  190/  6/  8 1014.9          4/ 7
GREAT SOUTH BAY  1430            65 70  230/  6/ 10   N/A
23 SSW MONTAUK P 1450            61 58  230/  8/ 10 1015.1          4/ 7
15 E BARNEGAT LI 1422               62                N/A           4/ 7
HUDSON CANYON    1350            63 60              1015.1          4/ 8
KINGS POINT      1400            67 60              1014.8
EXECUTION ROCKS  NOT AVBL
CENTRAL LI SOUND 1445            67     220/  4/  6   N/A           0
EASTERN LI SOUND 1400            59 55  220/  4/  6   N/A
ROBBINS REEF     1400            70     160/  5/  6 1014.2
$$


>>>>>>>>>>>>>>>>>>>>>>>>>>>> KEY <<<<<<<<<<<<<<<<<<<<<<<<<<<
>                                                          <
>     SKY/WX - SKY CONDITION/PRESENT WEATHER               <
>     TMP    - TEMPERATURE IN FAHRENHEIT                   <
>     DP     - DEWPOINT IN FAHRENHEIT                      <
>     RH     - RELATIVE HUMIDITY IN PERCENT                <
>     WIND   - DIRECTION AND SPEED IN MPH                  <
>     PRES   - MEAN SEA LEVEL PRESSURE IN INCHES OF HG     <
>     WCI    - WIND CHILL INDEX                            <
>     VSB    - VISIBILITY IN MILES                         <
>     HX     - HEAT INDEX                                  <
>     TC     - TEMPERATURE IN CELSIUS                      <
>     VRB    - VARIABLE WIND DIRECTION                     <
>                                                          <
>>>>>>>>>>>>>>>>>>>>>>>>>>>> KEY <<<<<<<<<<<<<<<<<<<<<<<<<<<






USA.gov is the U.S. government's official web portal to all federal, state and local government web resources and services.